Date,TemperatureHighF,TemperatureAvgF,TemperatureLowF,DewpointHighF,DewpointAvgF,DewpointLowF,HumidityHigh,HumidityAvg,HumidityLow,PressureMaxIn,PressureMinIn,WindSpeedMaxMPH,WindSpeedAvgMPH,GustSpeedMaxMPH,PrecipitationSumIn
2013-1-1,33.5,26.2,19.1,18.7,13.3,9.3,76,59,42,30.39,30.11,14,5,18,0.00
2013-1-2,34.4,21.9,9.8,11.0,7.7,3.4,76,56,31,30.46,30.31,11,4,13,0.00
2013-1-3,37.1,23.2,12.5,12.7,8.6,3.9,70,54,36,30.54,30.40,7,2,9,0.00
2013-1-4,34.1,21.4,7.8,10.1,3.3,-2.7,64,47,31,30.55,30.37,9,4,14,0.00
2013-1-5,45.7,28.5,12.8,9.5,6.4,0.5,65,40,21,30.56,30.41,5,0,5,0.00
2013-1-6,45.1,27.7,13.1,10.8,7.1,2.2,65,44,24,30.55,30.23,7,1,9,0.00
2013-1-7,50.2,35.4,26.1,18.1,13.0,8.9,51,40,27,30.24,29.97,8,1,9,0.00
2013-1-8,48.3,33.1,20.4,15.7,12.2,-99.9,64,45,24,30.31,30.00,11,-4,15,0.00
2013-1-9,51.4,33.9,19.7,17.4,6.5,-99.9,60,38,25,30.50,30.19,10,-49,12,0.00
2013-1-10,48.3,34.4,20.7,20.4,13.7,8.6,63,44,28,30.19,29.75,7,1,10,0.00
2013-1-11,44.2,32.9,16.8,25.0,6.6,-6.1,55,34,19,29.95,29.60,20,6,23,0.00
2013-1-12,35.5,20.2,9.6,1.3,-4.1,-9.5,52,35,20,30.22,29.95,6,1,7,0.00
2013-1-13,32.7,19.1,4.2,4.4,-2.2,-8.0,63,40,26,30.32,30.14,0,0,1,0.00
2013-1-14,30.0,20.1,11.7,22.6,9.7,-1.7,89,65,43,30.30,30.09,9,2,11,0.03
2013-1-15,23.2,14.4,4.1,4.4,-2.2,-99.9,68,51,38,30.64,30.29,12,-20,13,0.00
2013-1-16,37.7,20.5,4.4,15.2,-6.2,-99.9,74,45,38,30.69,30.53,9,-126,10,0.01
2013-1-17,49.7,26.3,13.0,18.4,-0.2,-99.9,82,47,28,30.68,30.51,7,-120,9,0.00
2013-1-18,52.0,33.4,17.6,20.4,16.6,11.3,77,53,28,30.51,30.30,9,3,11,0.00
2013-1-19,51.4,34.8,20.7,21.5,17.0,12.4,72,51,24,30.44,30.30,8,4,11,0.00
2013-1-20,53.5,34.8,16.2,18.5,13.8,8.5,72,46,21,30.41,30.22,8,4,10,0.00
2013-1-21,52.3,35.6,19.7,17.7,12.8,7.4,61,41,22,30.39,30.22,9,4,14,0.00
2013-1-22,58.9,39.1,19.3,18.4,14.8,10.7,71,41,18,30.38,30.23,6,1,9,0.00
2013-1-23,59.3,38.8,19.2,16.3,12.3,8.5,65,37,17,30.44,30.28,8,2,9,0.00
2013-1-24,62.0,42.6,21.5,34.0,17.5,7.1,55,39,20,30.37,30.16,10,2,12,0.00
2013-1-25,47.0,11.9,36.8,31.2,-62.8,-99.9,72,18,53,30.24,30.04,5,-713,8,0.00
2013-1-26,55.3,32.6,40.8,49.0,-5.8,-99.9,88,49,61,30.11,29.77,10,-328,17,0.18
2013-1-27,59.2,49.7,42.9,40.1,36.6,32.3,80,62,37,29.90,29.76,13,6,18,0.00
2013-1-28,53.7,39.7,36.9,36.6,15.5,-99.9,81,52,43,29.80,29.58,16,-116,20,0.03
2013-1-29,37.0,28.7,27.0,21.7,3.4,-99.9,64,43,30,30.04,29.66,24,-79,34,0.00
2013-1-30,40.4,31.4,22.6,17.1,13.3,7.0,63,48,32,30.33,30.04,17,7,23,0.00
2013-1-31,51.1,37.5,24.1,23.2,19.3,15.4,71,50,28,30.40,30.25,12,2,17,0.00
2013-2-1,55.4,38.7,22.4,23.4,19.5,16.2,78,50,24,30.32,30.17,11,2,14,0.00
2013-2-2,55.9,41.0,25.2,21.9,19.6,16.1,70,44,25,30.39,30.26,6,2,8,0.00
2013-2-3,51.8,40.5,26.8,28.9,20.4,15.7,64,46,26,30.30,29.97,8,2,9,0.00
2013-2-4,56.7,44.5,34.4,28.7,24.7,20.1,70,47,25,30.08,29.92,11,4,15,0.00
2013-2-5,59.9,44.9,33.4,23.6,19.6,15.0,57,38,20,30.06,29.90,8,2,10,0.00
2013-2-6,60.5,42.8,24.3,28.7,20.3,13.0,62,42,28,29.98,29.80,10,3,14,0.00
2013-2-7,56.3,45.1,35.1,26.1,21.6,15.5,61,41,21,30.09,29.96,9,1,13,0.00
2013-2-8,57.4,44.6,32.1,24.4,20.3,16.6,54,39,26,30.05,29.69,17,6,23,0.00
2013-2-9,47.8,35.9,29.7,22.3,15.9,5.6,65,46,24,29.86,29.55,25,9,34,0.00
2013-2-10,42.4,34.3,28.0,20.5,14.0,9.2,68,44,27,30.01,29.86,11,5,17,0.00
2013-2-11,44.6,32.0,17.9,21.4,15.8,5.4,80,55,20,30.09,29.93,13,5,16,0.00
2013-2-12,39.8,31.1,22.7,21.5,12.3,6.0,73,48,25,30.26,30.00,16,6,21,0.00
2013-2-13,46.4,35.0,22.5,17.0,13.0,8.1,55,41,29,30.27,30.09,13,4,19,0.00
2013-2-14,49.7,39.1,27.1,19.8,17.5,15.0,62,43,27,30.21,30.05,15,5,21,0.00
2013-2-15,50.5,39.0,24.4,20.6,13.4,5.2,67,39,16,30.39,30.20,20,5,26,0.00
2013-2-16,58.2,41.0,25.2,14.2,9.3,3.4,49,29,13,30.46,30.12,10,2,16,0.00
2013-2-17,59.3,41.6,20.3,10.9,6.6,1.7,46,25,13,30.13,29.68,10,4,15,0.00
2013-2-18,50.6,41.2,32.5,16.4,2.0,-9.5,46,21,9,30.05,29.77,15,6,18,0.00
2013-2-19,59.0,40.7,21.8,33.6,8.2,-9.9,63,29,14,30.08,29.70,18,8,25,0.00
2013-2-20,49.0,28.4,35.1,33.9,-11.6,-99.9,75,43,28,29.70,29.34,16,-311,23,0.00
2013-2-21,47.8,25.0,29.7,25.7,-21.0,-99.9,81,34,30,29.88,29.47,11,-345,14,0.05
2013-2-22,41.3,33.7,28.1,22.4,15.1,-99.9,68,52,30,30.07,29.87,18,-33,21,0.00
2013-2-23,47.3,35.1,21.9,18.6,8.4,-99.9,59,37,25,30.13,29.72,10,-34,14,0.00
2013-2-24,42.0,33.4,26.7,24.1,15.0,4.6,88,49,27,29.92,29.62,22,9,31,0.00
2013-2-25,48.0,36.1,24.7,26.8,12.0,5.5,92,41,19,30.15,29.92,14,5,20,0.00
2013-2-26,45.7,34.2,23.9,13.8,6.2,-4.5,54,32,15,30.14,29.83,25,8,36,0.00
2013-2-27,44.4,33.5,20.6,10.2,5.8,0.3,53,32,20,30.36,30.14,10,2,10,0.00
2013-2-28,51.7,36.4,21.2,9.9,5.0,0.3,44,28,13,30.41,30.24,17,4,23,0.00
2013-3-1,59.0,45.5,33.7,21.0,14.9,6.5,37,29,22,30.39,30.19,13,6,17,0.00
2013-3-2,65.3,49.3,27.8,25.0,21.5,14.2,58,35,20,30.38,30.09,7,2,10,0.00
2013-3-3,62.2,24.5,33.6,21.1,-34.9,-99.9,50,20,17,30.09,29.73,7,-446,12,0.00
2013-3-4,62.2,0.4,62.2,-99.9,-99.9,-99.9,0,0,100,29.81,29.55,0,-992,0,0.00
2013-3-5,59.8,52.4,34.4,21.9,18.1,13.4,55,27,16,30.34,30.04,8,3,10,0.00
2013-3-6,66.1,52.8,40.4,27.2,22.4,13.6,42,31,21,30.07,29.78,10,4,13,0.00
2013-3-7,69.4,53.7,30.8,23.4,20.0,15.5,53,29,16,29.95,29.72,11,4,17,0.00
2013-3-8,60.4,48.3,39.2,40.9,25.9,12.9,81,46,23,29.82,29.57,17,6,25,0.15
2013-3-9,44.2,38.7,32.7,32.6,23.4,16.6,78,55,34,29.97,29.68,13,4,16,0.00
2013-3-10,51.0,38.4,25.7,27.7,22.5,15.6,85,57,28,30.16,29.97,13,4,19,0.00
2013-3-11,61.6,46.7,29.2,22.4,18.2,13.4,59,34,16,30.19,29.93,13,5,17,0.00
2013-3-12,66.6,53.4,38.8,25.2,22.5,20.4,50,31,20,30.11,29.98,7,3,15,0.00
2013-3-13,70.4,52.8,33.2,27.8,23.7,17.7,63,35,18,30.25,30.06,10,3,14,0.00
2013-3-14,74.6,56.8,39.5,25.1,20.9,17.5,45,27,14,30.21,30.00,10,3,15,0.00
2013-3-15,66.9,48.7,38.3,23.7,17.8,14.6,39,30,19,30.04,29.96,9,2,9,0.00
2013-3-18,65.1,58.4,46.7,15.2,11.5,7.0,24,16,12,29.85,29.72,17,7,25,0.00
2013-3-19,54.0,44.0,39.6,12.6,8.7,6.3,29,23,19,29.93,29.84,4,1,5,0.00
2013-3-27,70.5,65.4,59.0,18.5,15.2,12.8,16,14,13,29.86,29.76,10,3,13,0.00
2013-3-28,72.2,58.8,45.3,22.3,16.9,12.4,28,20,13,29.93,29.78,13,2,16,0.00
2013-4-2,66.5,56.1,52.4,24.5,19.1,-99.9,33,25,10,29.78,29.55,20,-12,27,0.00
2013-4-3,66.1,52.2,37.4,30.9,26.4,21.4,66,40,19,30.00,29.78,12,5,14,0.00
2013-4-4,70.3,50.0,38.0,29.5,25.6,22.5,58,41,17,30.11,29.97,8,3,11,0.00
2013-4-8,76.6,69.1,54.6,29.6,25.2,19.7,38,20,12,29.42,29.06,24,14,32,0.00
2013-4-9,54.4,46.9,40.1,35.3,30.4,25.9,78,53,38,29.51,29.13,17,9,21,0.10
2013-4-11,62.8,57.9,48.6,30.8,26.5,20.4,33,30,26,29.92,29.74,17,11,23,0.00
2013-4-12,67.9,63.4,56.9,33.1,28.8,25.3,40,27,22,29.77,29.62,13,4,16,0.00
2013-4-13,73.4,61.7,39.8,29.1,23.4,19.0,50,25,14,29.73,29.44,17,6,27,0.00
2013-4-14,76.2,65.4,55.6,28.4,25.3,22.8,30,22,15,29.48,29.31,18,9,28,0.00
2013-4-15,80.9,66.1,49.6,27.1,23.2,19.1,36,21,11,29.50,29.28,20,8,31,0.00
2013-4-16,80.5,67.2,55.7,27.2,20.9,13.7,27,18,8,29.54,29.31,20,11,26,0.00
2013-4-17,63.1,53.0,40.9,28.3,20.7,14.8,41,29,16,29.81,29.39,19,8,26,0.00
2013-4-18,48.0,40.6,30.9,17.1,7.7,3.4,40,26,16,30.21,29.81,19,9,27,0.00
2013-4-19,63.3,46.8,29.4,12.5,7.8,3.9,34,21,12,30.31,29.91,9,3,15,0.00
2013-4-20,68.0,56.1,43.6,21.9,14.0,3.8,29,19,14,29.91,29.66,19,6,24,0.00
2013-4-21,73.8,57.7,39.4,25.6,20.1,12.3,45,25,10,29.99,29.78,13,3,16,0.00
2013-4-22,81.5,66.2,46.0,23.7,20.0,17.1,35,18,10,29.82,29.50,16,6,20,0.00
2013-4-23,67.9,57.4,42.0,29.6,19.3,-1.9,54,25,9,29.92,29.55,20,9,25,0.00
2013-4-24,68.9,49.9,28.1,26.0,19.1,14.7,59,33,16,30.11,29.91,10,3,13,0.00
2013-4-25,75.9,60.4,47.4,31.5,26.0,19.3,41,28,14,29.97,29.60,19,6,22,0.00
2013-4-26,75.0,61.3,46.3,31.1,24.2,10.9,53,28,9,29.99,29.81,12,3,25,0.00
2013-4-27,76.4,61.8,43.1,30.7,19.9,5.8,49,24,8,30.04,29.82,10,3,13,0.00
2013-4-28,80.4,64.3,40.8,21.0,13.9,7.5,31,15,8,29.90,29.62,8,2,15,0.00
2013-4-29,85.9,68.5,45.0,25.3,20.4,12.9,34,17,10,29.71,29.43,12,2,18,0.00
2013-4-30,85.7,71.2,49.2,26.1,22.1,18.5,34,17,9,29.56,29.38,15,4,21,0.00
2013-5-1,82.5,70.3,56.5,28.9,19.2,4.5,29,15,10,29.89,29.48,16,6,23,0.00
2013-5-2,60.9,49.8,39.1,28.5,20.1,15.1,56,33,18,30.29,29.88,13,5,14,0.00
2013-5-3,67.2,51.2,32.1,19.0,15.8,12.6,47,26,14,30.30,29.87,10,5,13,0.00
2013-5-4,75.6,61.1,41.1,18.8,15.7,11.0,31,18,11,29.90,29.64,17,5,29,0.00
2013-5-5,70.6,62.2,51.8,34.0,23.3,15.0,30,23,16,29.90,29.73,21,8,31,0.00
2013-5-6,70.0,61.5,53.2,38.3,28.6,20.0,45,29,22,29.79,29.70,17,4,22,0.00
2013-5-7,75.0,62.7,47.2,34.4,31.3,27.0,52,32,17,29.83,29.61,14,4,16,0.00
2013-5-8,70.3,59.2,47.8,35.5,30.4,21.9,58,36,16,29.80,29.68,13,3,17,0.00
2013-5-13,83.7,78.3,66.2,35.1,32.3,29.8,29,19,16,29.93,29.80,7,3,17,0.00
2013-5-14,86.4,70.6,52.3,42.5,30.6,19.4,39,24,14,29.85,29.57,15,4,21,0.00
2013-5-15,82.9,68.9,62.3,44.2,40.0,35.7,50,36,19,29.69,29.55,6,2,12,0.00
2013-5-20,74.9,66.9,56.7,32.9,28.9,16.8,40,25,11,29.75,29.58,20,7,23,0.00
2013-5-21,79.5,64.7,48.9,35.3,31.0,25.3,52,31,14,29.84,29.61,12,4,19,0.00
2013-5-22,86.3,71.4,51.8,31.9,26.4,21.0,45,21,10,29.68,29.46,10,3,15,0.00
2013-5-23,91.7,76.1,55.0,45.8,25.9,18.4,33,17,9,29.68,29.44,16,5,22,0.00
2013-5-24,88.5,75.3,59.8,43.9,35.3,24.9,53,27,12,29.74,29.54,11,4,14,0.00
2013-5-25,91.8,75.9,55.3,40.3,27.8,19.7,37,19,8,29.76,29.49,12,3,21,0.00
2013-5-26,88.6,75.6,58.5,27.3,21.7,15.1,29,14,7,29.72,29.50,11,2,17,0.00
2013-5-27,84.9,72.1,54.1,29.0,19.9,14.1,27,14,8,29.69,29.49,14,3,21,0.00
2013-5-28,85.9,72.1,52.4,26.1,21.4,15.7,30,16,8,29.56,29.29,10,3,17,0.00
2013-5-29,81.8,71.5,59.7,38.6,27.2,15.7,38,21,9,29.45,29.29,14,6,23,0.00
2013-5-30,87.4,73.5,56.5,31.9,26.2,20.1,26,18,11,29.60,29.43,16,4,24,0.00
2013-5-31,84.7,74.7,64.0,39.5,29.7,14.0,36,20,11,29.66,29.50,18,7,25,0.00
2013-6-1,87.1,71.9,55.3,34.1,18.8,13.0,26,14,7,29.80,29.66,15,4,22,0.00
2013-6-2,86.6,74.5,61.6,44.7,37.3,30.8,35,26,19,29.79,29.50,18,5,28,0.00
2013-6-3,92.1,78.1,64.3,49.4,39.0,21.5,49,29,10,29.67,29.43,12,6,19,0.00
2013-6-4,92.9,74.9,57.8,35.1,26.1,20.0,28,18,8,29.66,29.46,11,3,19,0.00
2013-6-5,89.8,78.2,64.7,46.8,36.1,28.9,39,23,12,29.62,29.45,13,4,17,0.00
2013-6-6,89.8,73.3,54.9,45.8,40.4,31.0,57,33,14,29.73,29.55,18,4,23,0.00
2013-6-7,91.8,74.4,60.2,50.5,44.3,35.3,64,38,14,29.72,29.43,18,4,27,0.00
2013-6-8,94.8,78.9,58.7,46.6,39.1,30.7,59,29,11,29.60,29.39,16,7,21,0.00
2013-6-9,95.9,82.6,67.7,48.7,43.8,31.9,45,27,13,29.64,29.49,10,4,18,0.00
2013-6-10,101.1,87.2,70.7,51.7,42.0,32.5,43,23,10,29.64,29.42,17,5,23,0.00
2013-6-13,98.9,94.5,89.0,45.8,43.0,38.0,21,17,13,29.64,29.52,8,5,24,0.00
2013-6-17,94.6,85.8,69.9,49.2,42.8,37.2,38,23,16,29.77,29.53,16,5,27,0.00
2013-6-18,92.2,79.3,66.9,51.9,47.4,39.9,55,35,18,29.74,29.47,20,8,28,0.00
2013-6-19,98.9,83.3,62.8,48.9,33.5,19.0,46,21,6,29.59,29.34,13,4,19,0.00
2013-6-20,97.6,80.7,60.5,42.3,25.7,12.4,46,17,5,29.63,29.42,12,3,19,0.00
2013-6-21,91.4,72.8,60.1,47.0,27.8,16.8,38,20,10,29.67,29.55,7,2,11,0.00
2013-6-24,94.7,86.7,76.6,29.2,26.9,20.1,14,12,7,29.62,29.45,10,4,20,0.00
2013-6-27,105.1,98.9,88.4,40.6,36.0,32.7,18,12,9,29.66,29.54,13,5,17,0.00
2013-6-28,98.7,85.7,76.8,51.1,45.5,36.3,40,26,16,29.76,29.60,24,8,33,0.00
2013-6-29,98.3,80.6,66.6,51.4,47.3,40.4,53,34,15,29.77,29.58,23,5,32,0.00
2013-6-30,97.2,80.1,65.8,50.8,47.6,42.9,52,34,17,29.78,29.50,20,5,24,0.00
2013-7-1,88.5,73.6,61.2,56.6,51.3,45.1,76,48,26,29.87,29.69,19,6,27,0.01
2013-7-2,86.7,73.8,61.6,55.0,48.2,43.7,61,42,25,29.92,29.66,14,5,18,0.00
2013-7-3,88.9,72.9,61.4,56.1,52.0,45.2,76,51,23,29.85,29.55,18,4,25,0.12
2013-7-4,92.0,76.8,62.1,55.6,52.2,45.0,77,46,24,29.68,29.50,16,3,24,0.00
2013-7-5,95.4,80.3,67.0,63.7,54.8,49.0,83,45,23,29.63,29.42,23,5,28,0.41
2013-7-6,91.9,75.5,65.4,62.5,55.9,46.7,81,55,22,29.69,29.49,13,4,19,0.01
2013-7-7,96.6,79.9,65.0,60.4,55.5,47.7,81,48,20,29.70,29.53,13,4,16,0.04
2013-7-8,93.8,80.1,71.2,58.7,54.9,52.6,63,44,26,29.80,29.59,13,3,18,0.00
2013-7-9,95.6,79.4,67.4,64.6,57.7,52.7,76,51,25,29.83,29.64,21,3,24,0.23
2013-7-10,97.7,82.1,68.5,59.6,55.0,50.2,68,42,21,29.78,29.58,21,5,27,0.00
2013-7-11,89.7,79.3,70.3,59.2,55.6,50.2,64,46,28,29.78,29.57,14,6,17,0.00
2013-7-12,92.9,79.4,67.2,59.9,56.1,50.3,73,47,29,29.72,29.56,12,4,16,0.00
2013-7-13,94.5,81.5,70.4,59.1,54.7,48.3,67,42,22,29.72,29.57,13,4,18,0.00
2013-7-14,96.5,79.6,67.2,61.7,55.0,49.5,82,46,22,29.72,29.44,25,5,33,0.07
2013-7-15,76.6,70.2,66.5,62.2,55.3,48.7,84,61,45,29.85,29.65,15,6,23,0.00
2013-7-16,81.5,71.3,63.8,51.2,48.0,44.8,61,44,31,29.92,29.78,17,5,27,0.00
2013-7-17,80.6,71.4,61.8,55.6,51.3,46.4,79,51,32,30.01,29.86,12,4,17,0.03
2013-7-18,85.1,74.1,60.7,54.7,53.1,50.3,75,50,35,29.95,29.73,10,4,15,0.00
2013-7-19,88.2,73.3,64.0,62.4,58.4,53.3,86,61,37,29.80,29.63,20,3,20,0.43
2013-7-20,88.6,74.7,64.9,60.8,57.8,52.4,82,58,33,29.74,29.55,12,5,16,0.02
2013-7-21,91.0,77.3,66.9,59.6,55.3,49.1,71,49,25,29.69,29.54,17,4,29,0.00
2013-7-22,96.7,81.3,67.5,56.3,52.6,46.2,65,40,20,29.69,29.51,13,3,16,0.00
2013-7-23,96.0,82.5,69.7,55.5,51.7,45.0,59,36,22,29.65,29.49,19,3,23,0.00
2013-7-24,90.7,75.5,66.4,60.1,53.2,48.1,72,47,28,29.81,29.60,15,4,25,0.08
2013-7-25,87.1,74.5,64.1,59.9,57.6,54.9,79,58,37,29.87,29.71,18,4,30,0.21
2013-7-26,88.5,71.9,60.2,62.3,59.0,51.3,93,68,35,29.98,29.75,29,4,42,1.66
2013-7-27,84.0,73.0,61.6,59.1,56.3,53.4,86,58,38,29.98,29.69,10,4,15,0.00
2013-7-28,86.5,75.7,69.0,62.7,58.2,51.6,70,56,31,29.71,29.53,12,4,14,0.28
2013-7-29,89.8,77.4,65.3,60.9,54.0,46.5,80,49,24,29.77,29.65,11,2,12,0.01
2013-7-30,94.5,81.0,66.3,54.4,49.8,46.1,61,36,21,29.89,29.72,6,2,9,0.00
2013-7-31,96.0,82.4,66.3,54.3,50.2,44.1,57,35,18,29.87,29.67,8,3,11,0.00
2013-8-1,88.1,76.6,68.5,63.2,56.3,50.7,82,51,33,29.82,29.67,11,4,18,0.04
2013-8-2,92.9,75.4,64.1,61.9,58.7,52.4,88,61,27,29.80,29.63,13,4,18,0.11
2013-8-3,92.0,77.5,62.8,60.2,56.0,51.2,86,52,27,29.81,29.66,8,3,10,0.00
2013-8-4,94.1,79.1,65.4,60.6,57.0,49.3,82,50,24,29.79,29.60,15,4,18,0.07
2013-8-5,90.9,75.5,64.6,60.5,57.4,52.3,80,56,31,29.80,29.63,13,3,22,0.00
2013-8-6,89.3,76.5,66.7,57.3,53.4,48.1,63,46,27,29.72,29.60,11,3,19,0.00
2013-8-7,83.0,72.6,63.6,56.5,54.1,50.9,76,54,34,29.75,29.66,15,3,19,0.00
2013-8-8,85.5,73.4,64.7,55.7,51.6,44.7,71,49,26,29.77,29.65,19,4,24,0.00
2013-8-9,89.0,75.5,60.6,52.1,47.4,41.1,65,39,19,29.84,29.72,16,4,20,0.00
2013-8-10,84.8,71.9,62.5,54.5,50.8,44.4,75,49,32,29.98,29.78,17,5,21,0.03
2013-8-11,84.3,71.8,61.0,55.8,52.6,46.7,81,54,28,29.99,29.79,10,3,15,0.00
2013-8-12,85.0,73.9,66.7,58.0,54.9,50.2,71,53,34,29.89,29.73,9,4,15,0.00
2013-8-13,89.9,76.5,63.6,57.3,51.8,43.2,72,45,24,29.87,29.71,8,2,9,0.00
2013-8-14,89.2,75.4,61.9,57.2,51.7,43.0,70,46,21,29.85,29.69,21,2,25,0.00
2013-8-15,90.8,76.4,61.9,55.8,51.2,41.0,76,46,18,29.85,29.69,8,3,13,0.00
2013-8-16,94.7,81.5,65.4,52.5,47.5,39.7,57,33,16,29.82,29.65,9,3,13,0.00
2013-8-17,95.0,82.4,67.6,51.0,47.7,42.3,51,32,18,29.78,29.58,13,4,19,0.00
2013-8-18,94.3,81.9,71.3,53.6,49.8,46.8,48,34,21,29.76,29.59,12,2,22,0.06
2013-8-19,95.1,79.4,66.5,56.5,51.4,46.2,61,40,20,29.76,29.59,12,3,17,0.01
2013-8-20,92.8,76.1,62.6,59.0,55.6,51.7,78,52,26,29.78,29.60,13,2,14,0.01
2013-8-21,89.2,78.6,64.3,57.2,53.6,49.2,72,45,27,29.79,29.64,9,3,12,0.00
2013-8-22,93.8,80.4,64.8,53.9,49.2,41.9,60,35,24,29.80,29.61,8,3,12,0.00
2013-8-23,86.9,75.9,61.2,51.1,46.3,40.2,50,36,27,29.78,29.61,13,5,18,0.00
2013-8-24,85.3,74.0,64.5,60.7,54.5,48.6,80,53,31,29.83,29.67,11,4,20,0.26
2013-8-25,84.6,73.0,64.8,61.4,58.4,52.8,85,62,37,29.90,29.81,14,3,18,0.02
2013-8-26,89.3,75.5,63.6,61.3,56.5,50.1,78,54,30,29.92,29.74,15,4,21,0.16
2013-8-27,89.3,77.0,61.6,56.5,52.3,45.6,73,45,28,29.84,29.66,8,4,12,0.00
2013-8-28,88.2,76.1,62.6,55.6,51.8,48.0,64,44,29,29.83,29.69,10,4,17,0.00
2013-8-29,86.9,77.3,69.3,57.4,54.8,51.7,61,47,32,29.87,29.75,11,5,17,0.00
2013-8-30,94.2,80.6,65.9,60.7,55.4,46.4,76,45,23,29.84,29.65,8,3,10,0.00
2013-8-31,95.3,82.5,68.5,57.4,52.1,46.5,58,37,21,29.72,29.51,7,2,12,0.00
2013-9-1,94.2,79.3,68.1,58.1,51.6,46.3,63,40,22,29.77,29.55,16,4,24,0.01
2013-9-2,88.3,78.0,68.5,57.9,54.9,50.1,67,47,28,29.82,29.65,10,2,13,0.00
2013-9-3,92.6,77.4,64.9,58.6,55.4,51.2,77,50,25,29.82,29.65,6,3,8,0.00
2013-9-4,92.8,86.7,78.3,50.8,44.9,37.6,28,24,18,29.83,29.71,9,5,12,0.00
2013-9-5,90.8,78.1,59.7,46.5,41.9,37.8,52,29,19,29.90,29.75,8,3,11,0.00
2013-9-6,90.3,77.4,59.0,47.7,41.7,36.7,48,29,20,29.89,29.67,8,4,11,0.00
2013-9-7,90.1,77.1,61.7,54.9,49.2,44.4,58,38,27,29.81,29.63,9,3,13,0.00
2013-9-8,89.4,76.1,61.9,53.0,48.8,43.6,54,39,26,29.74,29.53,12,3,18,0.00
2013-9-9,87.1,74.5,62.7,55.8,51.2,45.8,66,46,28,29.65,29.49,13,3,17,0.01
2013-9-10,72.4,66.2,61.2,60.8,57.3,53.0,93,75,51,29.82,29.62,12,3,17,0.70
2013-9-11,82.5,70.0,61.1,63.1,57.9,50.2,95,70,35,29.88,29.75,12,2,12,0.01
2013-9-12,70.7,64.8,60.1,64.3,59.5,56.1,93,83,67,29.85,29.74,7,2,10,0.72
2013-9-13,70.3,63.6,60.3,60.8,58.7,55.5,95,85,60,29.85,29.73,12,3,17,0.48
2013-9-14,74.8,65.2,57.8,59.3,56.9,53.5,94,76,50,29.82,29.69,12,2,18,0.58
2013-9-15,78.5,66.0,56.4,58.0,54.7,49.0,92,70,38,29.88,29.77,9,2,10,0.32
2013-9-16,79.9,67.8,56.0,56.6,53.9,49.9,90,64,38,29.96,29.80,7,2,13,0.00
2013-9-17,82.0,70.3,59.0,57.8,54.9,49.1,87,61,33,29.86,29.64,9,4,13,0.00
2013-9-18,82.4,73.2,64.9,59.3,56.1,50.6,78,56,36,29.70,29.54,9,3,13,0.00
2013-9-19,83.2,71.4,60.5,59.2,52.6,41.6,86,55,29,29.70,29.59,6,2,10,0.04
2013-9-20,82.7,70.1,58.4,53.5,49.7,41.9,71,50,32,29.81,29.68,9,2,15,0.00
2013-9-21,80.3,68.6,57.4,55.5,52.4,48.7,84,59,35,29.82,29.62,9,5,14,0.00
2013-9-22,80.7,68.3,59.0,56.1,51.0,41.8,85,56,31,29.66,29.31,21,8,24,0.07
2013-9-23,71.6,61.2,48.5,42.4,36.1,31.8,71,41,26,29.89,29.54,14,4,21,0.00
2013-9-24,76.9,63.2,49.7,45.6,40.7,38.3,68,46,26,30.00,29.78,6,3,11,0.00
2013-9-25,83.6,67.2,47.8,45.9,42.6,37.6,81,46,23,29.78,29.46,13,5,17,0.00
2013-9-26,82.7,69.4,51.7,45.7,40.0,34.4,70,37,19,29.58,29.43,16,6,22,0.00
2013-9-27,71.3,60.7,48.1,49.1,41.0,32.6,58,49,37,29.86,29.50,14,6,19,0.00
2013-9-28,68.7,53.7,39.3,34.3,27.3,20.2,67,40,19,30.12,29.87,11,2,16,0.00
2013-9-29,77.5,58.7,39.8,32.6,29.5,25.6,69,37,16,30.12,29.87,4,1,6,0.00
2013-9-30,83.1,64.3,45.0,36.0,31.3,26.8,59,32,15,29.90,29.67,7,1,13,0.00
2013-10-1,83.9,66.5,48.5,35.2,30.8,22.4,58,30,11,29.82,29.67,5,1,7,0.00
2013-10-2,80.9,64.5,45.5,38.2,32.5,26.3,64,33,15,29.83,29.65,5,1,8,0.00
2013-10-3,77.2,63.4,45.9,37.7,33.9,28.9,66,36,17,29.74,29.50,10,3,16,0.00
2013-10-4,64.2,56.0,48.5,34.0,22.5,12.6,44,28,17,30.00,29.59,16,8,21,0.00
2013-10-5,60.7,50.3,38.6,23.5,20.6,16.7,52,32,19,30.19,30.00,12,4,17,0.00
2013-10-6,70.9,53.0,40.6,26.2,22.6,20.1,46,32,17,30.25,30.07,5,1,5,0.00
2013-10-7,75.0,61.4,39.8,29.5,25.9,21.6,51,28,15,30.17,29.92,7,3,11,0.00
2013-10-8,77.9,61.6,44.0,33.8,30.8,27.0,56,34,19,29.92,29.63,11,3,12,0.00
2013-10-9,75.8,62.1,45.0,38.7,33.7,27.6,62,37,19,29.74,29.59,12,5,18,0.00
2013-10-10,70.1,55.8,45.0,45.9,36.3,27.4,76,49,29,29.82,29.48,24,6,33,0.13
2013-10-11,62.8,49.4,35.9,33.7,31.3,27.9,79,52,31,29.97,29.82,11,3,13,0.00
2013-10-12,69.9,54.0,38.4,36.8,33.8,30.6,76,50,27,30.08,29.90,8,3,11,0.00
2013-10-13,77.1,62.2,47.4,43.7,39.2,34.8,67,45,22,29.99,29.70,17,5,21,0.00
2013-10-14,68.4,58.8,48.0,44.6,30.5,20.2,65,36,20,29.87,29.73,11,4,16,0.00
2013-10-15,64.5,51.7,37.3,32.8,27.4,21.9,60,40,28,29.97,29.78,17,6,33,0.00
2013-10-16,60.7,51.3,43.5,35.0,28.4,15.3,65,44,22,30.02,29.88,11,4,15,0.00
2013-10-17,64.3,49.3,33.1,25.6,21.6,18.3,62,36,20,30.09,29.85,5,2,9,0.00
2013-10-18,61.4,50.6,35.8,24.0,19.8,15.0,58,32,19,30.07,29.87,16,4,25,0.00
2013-10-19,65.2,47.9,30.6,28.8,23.9,18.1,80,45,19,30.16,29.95,6,3,10,0.00
2013-10-20,69.6,53.7,36.6,24.7,20.2,16.6,51,29,15,30.00,29.74,13,3,16,0.00
2013-10-21,64.3,52.9,41.2,31.8,26.8,19.9,60,37,25,30.06,29.84,6,1,7,0.00
2013-10-22,69.4,51.0,33.0,30.8,25.5,19.4,71,41,17,30.21,30.03,8,2,10,0.00
2013-10-23,70.6,52.3,34.4,31.2,26.0,19.5,57,38,21,30.14,29.96,8,3,11,0.00
2013-10-24,74.4,56.0,40.0,47.0,31.4,25.0,81,43,22,30.10,29.91,17,4,19,0.07
2013-10-25,66.1,54.5,47.5,47.3,43.5,38.2,86,68,44,30.09,29.92,19,5,24,0.04
2013-10-26,67.1,52.7,40.2,44.5,39.3,36.1,89,64,34,30.20,30.05,5,1,9,0.00
2013-10-27,68.0,53.6,37.9,39.7,36.4,33.0,88,57,28,30.11,29.78,8,3,11,0.00
2013-10-28,69.8,56.8,43.8,40.7,33.5,23.2,76,46,21,29.81,29.67,9,3,13,0.00
2013-10-29,68.6,59.8,45.8,30.5,26.8,23.2,48,29,21,29.83,29.60,17,7,27,0.00
2013-10-30,59.5,50.1,39.8,40.4,32.2,25.7,68,51,33,29.87,29.61,15,4,22,0.09
2013-10-31,53.9,44.8,34.4,30.4,26.7,23.2,77,51,31,30.06,29.87,16,6,20,0.00
2013-11-1,59.6,49.1,39.9,29.0,26.5,24.5,57,43,28,30.17,30.01,12,4,18,0.00
2013-11-2,62.5,48.7,32.8,29.2,26.0,23.6,71,44,24,30.27,29.95,8,3,11,0.00
2013-11-3,67.6,54.5,42.0,39.2,30.5,23.6,69,41,26,29.95,29.59,10,3,14,0.00
2013-11-4,65.7,54.8,40.6,41.7,35.4,31.4,75,49,32,29.80,29.59,12,4,15,0.00
2013-11-5,54.6,44.5,34.8,43.4,31.1,16.2,87,61,38,30.20,29.64,14,6,20,0.28
2013-11-6,52.9,41.5,28.1,18.9,15.5,10.9,61,36,21,30.43,30.21,10,4,16,0.00
2013-11-7,59.9,44.1,30.1,26.4,23.0,17.3,74,46,24,30.47,30.22,8,3,10,0.00
2013-11-8,61.8,45.0,28.8,28.1,25.7,22.9,82,51,25,30.23,29.99,6,2,8,0.00
2013-11-9,68.6,48.9,32.1,29.1,25.8,23.5,74,44,21,30.16,30.03,4,1,6,0.00
2013-11-10,68.0,49.1,33.5,29.6,26.6,24.3,72,45,20,30.25,30.09,9,3,13,0.00
2013-11-11,67.5,50.8,35.5,29.1,25.7,22.4,68,41,20,30.27,30.11,8,4,13,0.00
2013-11-12,58.4,46.7,36.8,34.4,29.6,22.9,76,52,38,30.47,30.26,9,2,14,0.00
2013-11-13,55.0,44.2,31.8,38.7,34.1,28.1,86,69,51,30.45,30.09,6,3,9,0.00
2013-11-14,60.6,46.9,35.4,39.6,33.7,25.6,87,63,37,30.10,29.86,6,1,7,0.00
2013-11-15,59.8,44.8,29.8,44.1,32.6,23.0,84,64,38,29.89,29.60,14,5,20,0.07
2013-11-16,60.8,51.7,44.1,42.7,35.5,26.9,83,56,34,29.72,29.50,11,6,15,0.00
2013-11-17,58.1,48.9,39.1,32.4,30.0,25.5,66,49,35,30.08,29.72,12,5,17,0.00
2013-11-18,58.2,42.8,32.7,31.8,29.3,26.3,79,60,36,30.19,30.06,6,2,7,0.00
2013-11-19,62.0,45.2,28.8,34.6,30.9,25.1,87,61,33,30.11,29.82,8,3,9,0.00
2013-11-20,49.8,44.6,37.8,41.6,36.2,29.3,92,74,50,29.88,29.77,8,3,10,0.19
2013-11-21,52.8,46.0,40.6,44.4,42.0,38.5,93,86,72,30.03,29.86,8,3,10,0.24
2013-11-22,43.4,36.7,33.9,41.1,30.2,26.1,92,78,67,30.36,30.00,9,4,12,0.06
2013-11-23,38.1,34.6,30.0,30.9,27.3,23.4,90,75,62,30.44,30.30,8,4,10,0.05
2013-11-24,30.6,28.1,23.6,25.0,22.1,19.0,89,78,66,30.38,30.21,7,4,10,0.06
2013-11-25,45.6,34.3,27.4,29.9,26.6,23.4,92,75,48,30.39,30.17,9,4,11,0.02
2013-11-26,47.9,34.9,24.7,29.5,26.3,21.9,89,73,47,30.50,30.39,6,2,7,0.01
2013-11-27,46.0,35.2,25.4,27.8,25.3,21.2,85,69,46,30.45,30.23,6,2,9,0.00
2013-11-28,49.9,35.9,25.9,27.1,24.9,20.9,87,67,38,30.33,30.21,7,2,9,0.00
2013-11-29,54.9,38.2,24.7,30.2,26.6,21.4,87,66,37,30.41,30.25,6,2,9,0.00
2013-11-30,56.8,40.8,28.8,32.7,29.2,24.9,86,66,40,30.35,30.17,9,2,12,0.00
2013-12-1,46.9,38.1,32.2,31.9,28.8,25.8,84,70,53,30.30,30.20,11,6,14,0.00
2013-12-2,51.9,39.7,30.4,29.1,26.3,23.3,76,60,40,30.24,29.85,10,2,11,0.00
2013-12-3,64.4,47.0,30.6,28.5,22.6,16.4,79,44,16,29.85,29.54,17,5,30,0.00
2013-12-4,59.5,47.3,36.6,30.4,23.6,16.2,66,41,23,29.75,29.42,24,10,30,0.00
2013-12-5,37.1,32.3,28.8,30.6,27.0,21.9,91,82,54,29.83,29.72,7,2,10,0.00
2013-12-9,28.6,23.4,16.2,11.9,3.3,-0.2,55,42,32,30.62,30.25,18,8,23,0.00
2013-12-10,35.6,22.2,10.1,8.9,3.8,-0.7,67,46,28,30.67,30.44,9,3,13,0.01
2013-12-11,41.3,26.3,13.8,16.6,11.7,6.4,76,56,31,30.66,30.48,9,3,12,0.00
2013-12-12,23.2,22.2,21.4,14.8,14.0,13.2,72,70,68,30.64,30.60,7,6,9,0.00
2013-12-19,56.8,47.5,34.7,25.4,22.4,17.7,55,38,28,29.74,29.65,7,2,9,0.00
2013-12-20,52.8,39.2,26.1,30.2,23.9,18.1,78,57,29,29.77,29.59,8,3,13,0.00
2013-12-21,40.1,36.6,34.1,32.4,26.8,22.7,92,68,53,29.86,29.51,16,6,20,0.05
2013-12-22,43.4,34.8,29.5,22.9,18.5,13.1,66,52,32,30.34,29.86,12,3,16,0.00
2013-12-23,48.0,36.4,26.3,20.9,18.1,15.0,63,48,33,30.52,30.34,8,3,10,0.00
2013-12-24,49.1,37.2,24.4,23.5,20.5,16.3,77,53,34,30.44,30.19,13,2,14,0.00
2013-12-25,46.1,34.6,25.3,21.9,16.9,12.5,72,50,26,30.46,30.31,11,3,14,0.00
2013-12-26,50.4,33.0,17.9,19.7,14.8,10.6,73,49,29,30.50,30.31,10,2,11,0.00
2013-12-27,54.0,36.0,24.3,18.8,14.8,11.7,62,44,22,30.44,30.26,12,3,14,0.00
2013-12-28,48.1,33.9,18.7,19.8,16.0,11.9,75,50,28,30.27,29.97,7,2,9,0.00
2013-12-29,46.7,37.2,29.0,22.7,20.7,18.3,68,52,38,30.22,30.00,9,2,9,0.00
2013-12-30,49.4,38.0,27.8,19.8,13.5,9.7,71,38,22,30.37,30.21,14,2,16,0.00
2013-12-31,49.9,35.0,20.2,18.4,15.4,11.4,71,47,27,30.40,30.17,6,2,10,0.00
2014-1-1,53.3,39.8,25.3,22.0,17.9,14.5,67,43,25,30.30,30.11,14,4,24,0.00
2014-1-2,50.9,35.4,22.1,23.7,15.9,11.6,79,49,21,30.41,30.26,6,2,8,0.00